PROBA-1 1 26958U 01049B 26118.94822802 .00002188 00000+0 14494-3 0 9990 2 26958 97.9621 125.7654 0053709 290.1250 69.4203 15.07311165336207 CUTE-1 (CO-55) 1 27844U 03031E 26118.58205232 .00000335 00000+0 16415-3 0 9997 2 27844 98.6755 127.7628 0008974 336.7316 23.3456 14.24304052184615 CUBESAT XI-IV (CO-57) 1 27848U 03031J 26118.96741483 .00000271 00000+0 13831-3 0 9994 2 27848 98.6786 127.8957 0009247 354.7046 5.4033 14.23593671184374 APRIZESAT 4 1 35684U 09041D 26118.76095171 .00000945 00000+0 11905-3 0 9990 2 35684 98.1422 193.0969 0044547 121.1354 239.4240 14.83803532904039 APRIZESAT 3 1 35686U 09041F 26118.94272000 .00001687 00000+0 15063-3 0 9993 2 35686 98.1994 269.8313 0061049 228.9771 130.6162 14.96067058909012 PROBA-2 1 36037U 09059B 26118.92806571 .00000217 00000+0 61095-4 0 9992 2 36037 98.2450 302.9646 0014524 74.7370 285.5431 14.54840942874360 APRIZESAT 5 1 37792U 11044E 26118.75471000 .00000954 00000+0 12778-3 0 9995 2 37792 98.2439 50.4049 0052682 160.4959 199.8284 14.80974594791474 APRIZESAT 6 1 37793U 11044F 26118.75739080 .00000754 00000+0 11381-3 0 9998 2 37793 98.2391 28.2435 0041909 243.4446 183.8043 14.76847825789853 PROBA-V 1 39159U 13021A 26118.91963363 .00000078 00000+0 52218-4 0 9998 2 39159 98.3561 99.9667 0002963 281.4003 78.6843 14.23586247674101 APRIZESAT 7 1 39416U 13066A 26118.84449749 .00001598 00000+0 16360-3 0 9997 2 39416 97.7673 72.7889 0036416 17.3480 342.8974 14.91442480673873 APRIZESAT 8 1 39425U 13066K 26118.83725892 .00001215 00000+0 13727-3 0 9992 2 39425 97.8188 67.0091 0047550 88.3514 272.3148 14.87542853672334 BUGSAT-1 (TITA) 1 40014U 14033E 26118.97289633 .00005550 00000+0 29768-3 0 9994 2 40014 98.0409 208.6691 0027910 351.8096 8.2675 15.15086218648388 SAUDISAT 4 1 40016U 14033G 26118.95064124 .00000817 00000+0 11460-3 0 9991 2 40016 97.7513 266.8087 0043721 232.4725 127.2510 14.79469880638791 APRIZESAT 9 1 40018U 14033J 26118.93020061 .00000550 00000+0 88335-4 0 9993 2 40018 97.8983 253.3537 0066117 359.9053 0.2132 14.74157880636303 APRIZESAT 10 1 40019U 14033K 26118.94242074 .00000615 00000+0 10388-3 0 9999 2 40019 97.9574 247.0225 0080137 71.4426 289.5465 14.70837466635012 TECHDEMOSAT-1 (TDS-1) 1 40076U 14037H 26118.95079378 .00008672 00000+0 50174-3 0 9990 2 40076 98.3806 106.3208 0008275 79.2628 280.9532 15.12508400640789 TECHNOSAT 1 42829U 17042E 26118.90922729 .00003617 00000+0 26074-3 0 9995 2 42829 97.4234 278.4691 0016163 261.0396 98.9002 15.04654612479290 FLYING LAPTOP 1 42831U 17042G 26118.98664936 .00002839 00000+0 22726-3 0 9994 2 42831 97.4462 276.4902 0017954 292.8265 67.1063 15.00828497479076 HAWK-A 1 43765U 18099H 26118.72059296 .00007421 00000+0 30348-3 0 9994 2 43765 97.3962 171.6144 0037057 99.7154 260.8272 15.23994921405566 HAWK-B 1 43794U 18099AN 26118.88098597 .00007347 00000+0 31760-3 0 9996 2 43794 97.4010 171.2890 0034117 115.7978 244.6784 15.22224682405538 HAWK-C 1 43799U 18099AT 26118.87255540 .00009292 00000+0 34064-3 0 9994 2 43799 97.3937 172.4387 0042895 100.0906 260.5176 15.27323944406386 SALSAT 1 46495U 20068K 26118.94528478 .00008479 00000+0 30285-3 0 9997 2 46495 97.8854 119.0416 0011631 112.2968 247.9505 15.29058442307837 HAWK-2C 1 47502U 21006CT 26118.58776868 .00006650 00000+0 20397-3 0 9990 2 47502 97.2326 163.8980 0007477 33.0617 327.1092 15.34058342291897 HAWK-2A 1 47505U 21006CW 26118.59070409 .00006643 00000+0 20370-3 0 9995 2 47505 97.2371 164.5496 0007183 37.3623 322.8119 15.34070502291892 HAWK-2B 1 47508U 21006CZ 26118.84868443 .00007423 00000+0 22723-3 0 9990 2 47508 97.2242 163.2152 0007611 33.3783 326.7938 15.34082914291933 HAWK-3B 1 48931U 21059BE 26118.97819477 .00036516 00000+0 36294-3 0 9999 2 48931 97.6699 311.1823 0006102 144.0380 216.1291 15.65646789270144 HAWK-3C 1 48948U 21059BX 26118.97788524 .00037944 00000+0 37715-3 0 9990 2 48948 97.6831 316.7800 0006505 143.9709 216.1990 15.65634196270141 HAWK-3A 1 48957U 21059CG 26118.97774968 .00037013 00000+0 36789-3 0 9994 2 48957 97.6773 314.0251 0006178 144.0286 216.1390 15.65641666270149 HAWK-5C 1 52754U 22057Y 26118.93020105 .00018453 00000+0 33540-3 0 9995 2 52754 97.6522 275.5176 0003833 234.2725 125.8169 15.49595369218718 HAWK-5B 1 52756U 22057AA 26118.93006731 .00018596 00000+0 33791-3 0 9992 2 52756 97.6531 273.8606 0004058 230.2181 129.8713 15.49600317218710 HAWK-5A 1 52757U 22057AB 26118.92982617 .00018897 00000+0 34336-3 0 9998 2 52757 97.6528 274.6940 0004273 232.5332 127.5530 15.49596912218716 HAWK-6B 1 55324U 23011A 26118.79681129 .00005235 00000+0 22951-3 0 9993 2 55324 40.4993 280.0503 0002251 14.2754 345.8118 15.22480852180311 HAWK-6C 1 55326U 23011C 26118.79617718 .00005296 00000+0 23205-3 0 9998 2 55326 40.4981 276.8983 0002968 1.8816 358.2004 15.22484345180325 HAWK-6A 1 55327U 23011D 26118.86180794 .00005350 00000+0 23431-3 0 9998 2 55327 40.4991 278.1354 0002676 357.4765 2.6031 15.22484010180333 HAWK-7A 1 56191U 23054P 26118.96560820 .00005934 00000+0 22777-3 0 9998 2 56191 97.2768 7.5569 0002524 170.2509 189.8780 15.26834285169519 HAWK-7B 1 56193U 23054R 26118.96554121 .00005958 00000+0 22866-3 0 9992 2 56193 97.2796 5.8030 0001661 165.7608 194.3678 15.26834677169518 HAWK-7C 1 56200U 23054Y 26118.96543426 .00005867 00000+0 22522-3 0 9995 2 56200 97.2771 6.5871 0002170 159.8263 200.3063 15.26834956169514